When you browse on this site, cookies collect data to enhance your experience and personalize the content and advertising you see.
Visit our Privacy Policy to learn more. By continuing to use the site, you agree to this use of cookies and data.
  • In United Kingdom
  • List of Countries
  • For 7 days
  • Water Temperature
  • Satellite Maps
  • Weather Map
  • Weather Widgets
  • user-avatar
    Login

    Hourly Weather Latno

    Today, 19 December, Wednesday

    Time Temperature Precipitation Wind Pressure Humidity
    00:00 0°C° 0 mm 4 mps 765 mmHg 95%
    01:00 -1°C° 0 mm 4 mps 765 mmHg 95%
    02:00 -1°C° 0 mm 5 mps 765 mmHg 95%
    03:00 -1°C° 0 mm 5 mps 765 mmHg 94%
    04:00 -1°C° 0 mm 5 mps 764 mmHg 94%
    05:00 -2°C° 0 mm 6 mps 764 mmHg 92%
    06:00 -2°C° 0 mm 6 mps 764 mmHg 91%
    07:00 -3°C° 0 mm 7 mps 763 mmHg 90%
    08:00 -2°C° 0 mm 7 mps 763 mmHg 86%
    09:00 -2°C° 0 mm 7 mps 763 mmHg 82%
    10:00 -2°C° 0 mm 8 mps 762 mmHg 78%
    11:00 -2°C° 0 mm 8 mps 762 mmHg 77%
    12:00 -1°C° 0 mm 8 mps 761 mmHg 75%
    13:00 -1°C° 0 mm 8 mps 761 mmHg 74%
    14:00 -1°C° 0 mm 7 mps 761 mmHg 76%
    15:00 -2°C° 0 mm 7 mps 761 mmHg 78%
    16:00 -2°C° 0 mm 7 mps 760 mmHg 80%
    17:00 -2°C° 0.1 mm 7 mps 760 mmHg 81%
    18:00 -2°C° 0.1 mm 6 mps 760 mmHg 81%
    19:00 -2°C° 0.1 mm 6 mps 760 mmHg 81%
    20:00 -2°C° 0 mm 6 mps 760 mmHg 82%
    21:00 -1°C° 0 mm 5 mps 759 mmHg 82%
    22:00 -1°C° 0 mm 5 mps 759 mmHg 83%
    23:00 -1°C° 0.1 mm 5 mps 759 mmHg 84%

    Tomorrow, 20 December, Thursday

    Time Temperature Precipitation Wind Pressure Humidity
    00:00 -1°C° 0.1 mm 5 mps 759 mmHg 85%
    01:00 -1°C° 0.1 mm 5 mps 759 mmHg 87%
    02:00 -1°C° 0.2 mm 5 mps 759 mmHg 89%
    03:00 -1°C° 0.2 mm 4 mps 759 mmHg 90%
    04:00 -1°C° 0.2 mm 4 mps 759 mmHg 92%
    05:00 -1°C° 0.3 mm 4 mps 759 mmHg 93%
    06:00 -1°C° 0.3 mm 4 mps 759 mmHg 93%
    07:00 -1°C° 0.3 mm 4 mps 759 mmHg 94%
    08:00 -1°C° 0.1 mm 4 mps 759 mmHg 93%
    09:00 -1°C° 0.1 mm 4 mps 759 mmHg 93%
    10:00 -1°C° 0.1 mm 4 mps 759 mmHg 93%
    11:00 -1°C° 0 mm 4 mps 759 mmHg 93%
    12:00 0°C° 0 mm 4 mps 759 mmHg 92%
    13:00 +1°C° 0 mm 3 mps 758 mmHg 92%
    14:00 +1°C° 0.1 mm 3 mps 758 mmHg 93%
    15:00 +1°C° 0.1 mm 3 mps 758 mmHg 94%
    16:00 +1°C° 0.1 mm 3 mps 758 mmHg 95%
    17:00 0°C° 0.3 mm 4 mps 758 mmHg 95%
    18:00 0°C° 0.3 mm 4 mps 758 mmHg 95%
    19:00 0°C° 0.3 mm 4 mps 758 mmHg 95%
    20:00 0°C° 0.2 mm 4 mps 758 mmHg 95%
    21:00 0°C° 0.2 mm 4 mps 758 mmHg 95%
    22:00 0°C° 0.2 mm 4 mps 758 mmHg 95%
    23:00 0°C° 0 mm 4 mps 757 mmHg 95%

    Day after tomorrow, 21 December, Friday

    Time Temperature Precipitation Wind Pressure Humidity
    00:00 0°C° 0 mm 4 mps 757 mmHg 95%
    01:00 0°C° 0 mm 4 mps 757 mmHg 95%
    02:00 0°C° 0 mm 4 mps 756 mmHg 95%
    03:00 0°C° 0 mm 5 mps 756 mmHg 95%
    04:00 +1°C° 0 mm 5 mps 756 mmHg 95%
    05:00 +1°C° 0 mm 5 mps 756 mmHg 95%
    06:00 +1°C° 0 mm 5 mps 755 mmHg 94%
    07:00 +1°C° 0 mm 5 mps 755 mmHg 94%
    08:00 +1°C° 0 mm 5 mps 754 mmHg 94%
    09:00 +1°C° 0 mm 5 mps 754 mmHg 94%
    10:00 +1°C° 0 mm 5 mps 754 mmHg 94%
    11:00 +1°C° 0 mm 5 mps 753 mmHg 93%
    12:00 +2°C° 0 mm 5 mps 753 mmHg 93%
    13:00 +2°C° 0 mm 5 mps 752 mmHg 92%
    14:00 +2°C° 0.1 mm 5 mps 751 mmHg 92%
    15:00 +2°C° 0.1 mm 5 mps 751 mmHg 93%
    16:00 +1°C° 0.1 mm 6 mps 750 mmHg 93%
    17:00 +1°C° 0.2 mm 6 mps 749 mmHg 93%
    18:00 +1°C° 0.2 mm 6 mps 748 mmHg 93%
    19:00 +1°C° 0.2 mm 6 mps 747 mmHg 93%
    20:00 +1°C° 0.7 mm 6 mps 747 mmHg 93%
    21:00 +1°C° 0.7 mm 6 mps 746 mmHg 93%
    22:00 +1°C° 0.7 mm 6 mps 745 mmHg 92%
    23:00 +2°C° 0.9 mm 6 mps 745 mmHg 91%

    22 December, Saturday

    Time Temperature Precipitation Wind Pressure Humidity
    00:00 +3°C° 0.9 mm 6 mps 745 mmHg 90%
    01:00 +4°C° 0.9 mm 6 mps 745 mmHg 89%
    02:00 +4°C° 0.3 mm 7 mps 745 mmHg 87%
    03:00 +4°C° 0.3 mm 7 mps 745 mmHg 85%
    04:00 +4°C° 0.3 mm 7 mps 745 mmHg 84%
    05:00 +4°C° 0.4 mm 8 mps 745 mmHg 83%
    06:00 +4°C° 0.4 mm 8 mps 745 mmHg 83%
    07:00 +4°C° 0.4 mm 8 mps 745 mmHg 82%
    08:00 +4°C° 0.2 mm 8 mps 745 mmHg 83%
    09:00 +5°C° 0.2 mm 8 mps 745 mmHg 83%
    10:00 +5°C° 0.2 mm 8 mps 746 mmHg 83%
    11:00 +5°C° 0.1 mm 8 mps 746 mmHg 84%
    12:00 +5°C° 0.1 mm 8 mps 746 mmHg 84%
    13:00 +5°C° 0.1 mm 8 mps 746 mmHg 85%
    14:00 +4°C° 0.1 mm 8 mps 747 mmHg 84%
    15:00 +3°C° 0.1 mm 9 mps 747 mmHg 84%
    16:00 +3°C° 0.1 mm 9 mps 747 mmHg 84%
    17:00 +3°C° 0 mm 9 mps 748 mmHg 84%
    18:00 +3°C° 0 mm 9 mps 749 mmHg 84%
    19:00 +4°C° 0 mm 8 mps 749 mmHg 84%
    20:00 +3°C° 0.2 mm 7 mps 750 mmHg 86%
    21:00 +3°C° 0.2 mm 6 mps 750 mmHg 88%
    22:00 +3°C° 0.2 mm 5 mps 751 mmHg 90%
    23:00 +4°C° 0.3 mm 4 mps 751 mmHg 90%

    23 December, Sunday

    Time Temperature Precipitation Wind Pressure Humidity
    00:00 +4°C° 0.3 mm 3 mps 752 mmHg 91%
    01:00 +4°C° 0.3 mm 2 mps 752 mmHg 92%
    02:00 +4°C° 0.2 mm 2 mps 753 mmHg 92%
    03:00 +4°C° 0.2 mm 2 mps 753 mmHg 93%
    04:00 +5°C° 0.2 mm 1 mps 753 mmHg 93%
    05:00 +4°C° 0.2 mm 2 mps 754 mmHg 93%
    06:00 +4°C° 0.2 mm 2 mps 754 mmHg 93%
    07:00 +4°C° 0.2 mm 2 mps 754 mmHg 93%
    08:00 +3°C° 0.5 mm 3 mps 755 mmHg 92%
    09:00 +3°C° 0.5 mm 3 mps 755 mmHg 92%
    10:00 +3°C° 0.5 mm 3 mps 756 mmHg 91%
    11:00 +3°C° 0.2 mm 3 mps 756 mmHg 90%
    12:00 +3°C° 0.2 mm 3 mps 756 mmHg 89%
    13:00 +3°C° 0.2 mm 3 mps 757 mmHg 88%
    14:00 +4°C° 0 mm 2 mps 757 mmHg 90%
    15:00 +4°C° 0 mm 2 mps 757 mmHg 91%
    16:00 +3°C° 0 mm 2 mps 757 mmHg 92%
    17:00 +3°C° 0.1 mm 2 mps 757 mmHg 92%
    18:00 +3°C° 0.1 mm 2 mps 757 mmHg 93%
    19:00 +3°C° 0.1 mm 2 mps 758 mmHg 93%
    20:00 +3°C° 0 mm 1 mps 758 mmHg 93%
    21:00 +3°C° 0 mm 1 mps 758 mmHg 93%
    22:00 +3°C° 0 mm 1 mps 759 mmHg 93%
    23:00 +3°C° 0 mm 1 mps 759 mmHg 93%

    24 December, Monday

    Time Temperature Precipitation Wind Pressure Humidity
    00:00 +3°C° 0 mm 1 mps 760 mmHg 93%
    01:00 +2°C° 0 mm 1 mps 760 mmHg 93%
    02:00 +2°C° 0 mm 2 mps 761 mmHg 93%
    03:00 +2°C° 0 mm 2 mps 761 mmHg 94%
    04:00 +2°C° 0 mm 2 mps 761 mmHg 95%
    05:00 +1°C° 0.1 mm 3 mps 761 mmHg 95%
    06:00 +2°C° 0.1 mm 3 mps 762 mmHg 95%
    07:00 +1°C° 0.1 mm 4 mps 762 mmHg 95%
    08:00 +1°C° 0 mm 4 mps 762 mmHg 94%
    09:00 +3°C° 0 mm 4 mps 762 mmHg 93%
    10:00 +3°C° 0 mm 4 mps 763 mmHg 92%
    11:00 +3°C° 0.1 mm 4 mps 763 mmHg 91%
    12:00 +3°C° 0.1 mm 4 mps 763 mmHg 89%
    13:00 +3°C° 0.1 mm 4 mps 763 mmHg 88%
    14:00 +3°C° 0.1 mm 4 mps 763 mmHg 89%
    15:00 +3°C° 0.1 mm 4 mps 763 mmHg 90%
    16:00 +2°C° 0.1 mm 5 mps 763 mmHg 91%
    17:00 +2°C° 0.1 mm 5 mps 763 mmHg 90%
    18:00 +1°C° 0.1 mm 5 mps 764 mmHg 90%
    19:00 +1°C° 0.1 mm 5 mps 764 mmHg 90%
    20:00 +1°C° 0 mm 5 mps 764 mmHg 90%
    21:00 +1°C° 0 mm 5 mps 764 mmHg 90%
    22:00 +1°C° 0 mm 4 mps 764 mmHg 90%
    23:00 +1°C° 0 mm 5 mps 764 mmHg 89%
    Show more